Location: ??????
(42.0089°N, 44.3281°E)
Time: 17:35:46
(UTC+00:00)

Daily predictions for brighter satellites

Satellite Brightness Start Highest point End
(mag) Time Altitude Azimuth Time Altitude Azimuth Time Altitude Azimuth
Cosmos 2360 Rocket 2.6 17:08:07 10° S 17:13:21 41° ESE 17:18:38 10° NE
Cosmos 1602 Rocket 3.9 17:09:16 10° SSE 17:13:29 48° E 17:17:47 10° NNE
Cosmos 1356 Rocket 4.0 17:09:59 10° NNW 17:14:13 63° W 17:18:21 10° S
Cosmos 2333 Rocket 3.6 17:17:25 10° SE 17:21:07 18° E 17:24:49 10° ENE
Cosmos 1818 3.6 17:25:18 10° SSW 17:30:36 60° ESE 17:35:58 10° NE
SL-16 R/B 2.9 17:26:19 10° SW 17:31:55 61° WNW 17:37:34 10° NNE
CZ-2C R/B 3.3 17:27:44 10° N 17:33:04 61° WNW 17:38:15 10° SSW
Resurs 01 Rocket 1.6 17:31:23 10° SSE 17:35:47 83° ENE 17:40:13 10° N
USA 215 3.7 17:29:48 10° ENE 17:35:51 39° SE 17:41:50 10° SSW
ERS-1 Rocket 4.3 17:36:52 11° ESE 17:40:47 25° ENE 17:44:49 10° NNE
Cosmos-2242 4.0 17:38:14 10° N 17:42:11 33° ENE 17:45:23 14° SE
GEOS 3 Rocket 3.8 17:38:53 10° NE 17:44:13 57° ESE 17:49:29 10° SSW
Cosmos 2278 Rocket 4.4 17:41:50 10° NNE 17:44:19 13° NE 17:46:47 10° ENE
ATLAS 5 CENTAUR R/B 1.4 17:41:30 10° SSW 17:45:31 69° ESE 17:49:59 10° NE
Cosmos 1844 Rocket 3.0 17:45:03 10° NNW 17:50:31 53° ENE 17:54:56 15° SE
USA 245 3.3 17:53:23 18° SE 17:55:34 51° ENE 17:59:24 10° N
Meteor 2-10 Rocket 3.5 17:50:55 10° N 17:56:03 86° W 18:01:20 10° S
SPOT 5 4.0 17:55:28 15° ESE 17:58:52 31° ENE 18:03:05 10° N
Cosmos 1758 Rocket 3.6 17:54:28 10° S 17:58:56 74° E 18:03:25 10° NNE
Spot 2 Rocket 3.5 17:56:21 14° SSE 18:00:41 70° ENE 18:05:46 10° N
Cosmos 1745 Rocket 4.1 17:54:58 10° S 18:01:09 82° W 18:07:27 10° N
Cosmos 1400 Rocket 3.0 18:00:07 10° N 18:04:01 53° ENE 18:06:27 21° SSE
Alouette 2 Rocket 4.0 18:00:57 10° N 18:04:47 52° ENE 18:08:24 18° SSE
OAO 3 Rocket 4.1 18:01:23 10° WSW 18:05:47 33° S 18:08:24 20° SE
Landsat 7 3.8 18:04:02 16° SSE 18:07:47 75° ENE 18:12:33 10° N
SPOT 1/Viking Rocket 3.6 18:10:37 18° SSE 18:14:24 72° ENE 18:19:34 10° N
BREEZE M DEB (TANK) 4.2 18:13:51 10° SSW 18:17:55 40° ESE 18:31:09 10° ENE
Cosmos 2322 Rocket 4.1 18:14:31 10° WSW 18:19:29 32° NW 18:24:30 10° N
Cosmos 1953 Rocket 3.5 18:18:56 18° S 18:22:02 69° E 18:26:21 10° NNE
OAO 2 Rocket 3.9 18:23:17 10° WSW 18:28:11 38° S 18:30:36 25° SE
Cosmos 1328 4.3 18:26:15 10° SSW 18:30:05 59° W 18:34:01 10° N
SAR-Lupe-2 3.8 18:33:10 10° N 18:36:45 67° WNW 18:39:18 18° SSW
Cosmos 1825 Rocket 4.3 18:33:32 10° SSW 18:37:50 51° W 18:42:13 10° N
Cosmos 1455 3.9 18:35:25 10° NNW 18:38:47 29° W 18:41:50 12° SSW
COSMOS 2428 2.7 18:33:39 12° S 18:38:47 66° ESE 18:44:25 10° NNE
NOSS 0 Rocket 4.5 18:39:41 26° SSE 18:42:14 37° ESE 18:47:51 10° NE
Cosmos 2322 4.0 18:37:09 10° SSW 18:42:50 70° WNW 18:48:33 10° NNE
BREEZE-M DEB (TANK) 3.5 18:35:23 10° WNW 18:43:47 51° NNE 18:45:52 20° E
BREEZE-M DEB (TANK) 4.4 18:38:00 10° WNW 18:43:54 30° NNW 18:46:39 10° NE
Cosmos 1844 3.8 18:38:40 10° NNW 18:44:25 72° WSW 18:47:38 27° S
ATLAS CENTAUR R/B 2.0 18:41:31 10° NNW 18:44:58 37° NE 18:46:06 29° E
NOSS 3-3 (A) 3.8 18:40:11 10° SSW 18:45:56 81° ESE 18:52:25 10° NE
NOSS 3-3 (C) 3.8 18:40:17 10° SSW 18:46:02 80° ESE 18:52:32 10° NE
Cosmos 1709 Rocket 4.3 18:40:01 10° SSW 18:46:15 67° W 18:52:35 10° N
IRIS 4.2 18:45:05 10° W 18:47:18 49° WSW 18:47:18 49° WSW
Meteor 1-27 4.2 18:44:45 10° N 18:50:30 75° E 18:53:26 31° SSE
Cosmos 2237 Rocket 2.9 18:51:26 30° SE 18:52:42 33° ESE 18:57:44 10° NE
Terra 1.8 18:52:47 36° SSE 18:54:44 75° ENE 18:59:30 10° N
Atlas Centaur 2 3.4 18:49:35 10° WSW 18:54:58 29° S 18:56:13 28° SSE
Cosmos 2219 Rocket 2.2 18:49:37 10° SSW 18:55:11 82° WNW 19:00:50 10° NNE
Cosmos 2360 Rocket 4.1 18:52:31 10° WSW 18:57:27 30° NW 19:02:25 10° N
Cosmos 1869 3.9 18:53:48 10° N 18:57:37 42° ENE 18:58:17 38° ESE
CARTOSAT-1 3.8 18:55:50 31° S 18:57:43 61° W 19:02:00 10° NNW
Cosmos 1538 Rocket 4.1 18:54:45 15° SSW 18:59:19 81° WNW 19:04:41 10° NNE
Cosmos 2184 Rocket 4.1 18:57:41 30° SSE 19:00:43 61° E 19:06:55 10° NNE
Cosmos 2333 Rocket 2.6 18:59:08 10° SW 19:04:45 65° WNW 19:10:28 10° NNE
DELTA 2 R/B (1) 3.8 18:59:31 10° SW 19:04:49 46° SSE 19:08:20 20° E
ATLAS 2AS CENTAUR R/B 3.9 18:59:27 10° NNW 19:06:25 37° NE 19:11:37 15° E
Meteor 2-2 Rocket 4.4 19:02:16 10° N 19:08:02 61° ENE 19:10:12 37° SE
Thor Agena Rocket 4.3 19:07:00 10° NNE 19:11:35 33° E 19:12:08 32° ESE
Cosmos 1315 Rocket 3.2 19:13:27 10° NNW 19:17:30 58° W 19:18:31 43° SSW
USA 215 3.7 19:12:34 10° NE 19:19:02 64° NW 19:25:29 10° WSW
ERS-1 Rocket 3.9 19:16:51 24° SSW 19:19:20 40° W 19:24:05 10° NNW
Cosmos 2221 2.4 19:20:27 10° N 19:24:50 88° W 19:25:38 59° S
Cosmos 2112 Rocket 4.2 19:27:48 46° SE 19:28:45 53° ESE 19:33:58 10° NNE
Cosmos 2278 Rocket 2.3 19:23:49 10° NNW 19:29:30 70° ENE 19:31:19 43° SE
Gblst 52 Del rocket 4.5 19:24:29 10° NW 19:30:18 74° NNE 19:33:39 30° ESE
Cosmos 1892 2.5 19:32:04 85° E 19:32:04 85° E 19:35:52 10° N
Cosmos 1844 Rocket 4.5 19:29:50 10° NW 19:33:57 22° W 19:36:36 16° SW
Cosmos 158 Rocket 3.8 19:33:25 56° SE 19:34:04 62° ESE 19:38:54 10° NNE
EO 1 Del DPAF 4.1 19:32:05 10° NNE 19:35:00 37° ENE 19:35:00 37° ENE
SPOT 5 4.3 19:34:42 23° SW 19:36:51 31° W 19:41:12 10° NW
SL-16 R/B 3.3 19:37:05 27° E 19:37:05 27° E 19:41:43 10° NE
Cosmos 2154 Rocket 3.9 19:38:17 42° S 19:40:33 80° E 19:46:47 10° N
Spot 4 4.1 19:40:53 47° ESE 19:41:43 53° ENE 19:46:22 10° N
Elektron 1 4.2 19:42:02 71° WNW 19:42:11 73° NW 19:46:45 10° NE
Nadezhda 3 Rocket 4.0 19:35:59 10° N 19:42:23 75° E 19:44:27 45° SSE
Cosmos 2341 Rocket 4.4 19:42:00 39° SE 19:43:31 46° E 19:49:25 10° NNE
Cosmos 2056 Rocket 4.3 19:40:40 10° N 19:45:49 42° ENE 19:47:20 35° ESE
BREEZE-M DEB (TANK) 4.0 19:43:20 10° W 19:45:23 25° WNW 19:45:23 25° WNW
Cosmos 2074 Rocket 4.5 19:44:36 26° SSW 19:48:03 56° W 19:54:11 10° N
Cosmos 2058 3.1 19:48:49 56° WSW 19:49:21 62° W 19:53:28 10° N
USA 267 3.3 19:46:45 33° ESE 19:49:58 81° NE 19:56:33 10° NW
In-Cosmos 22 Rocket 4.3 19:48:10 38° SW 19:50:07 64° WNW 19:55:25 10° N
Cosmos 1408 2.9 19:54:47 62° N 19:54:47 62° N 19:57:50 10° N
TSX-5 3.8 19:51:49 10° NNW 19:55:16 74° W 19:55:16 74° W
Cosmos 1680 Rocket 3.6 19:55:25 43° SW 19:57:09 75° WNW 20:02:29 10° NNE
Cosmos 1076 Rocket 3.9 19:59:22 49° WSW 19:59:58 54° W 20:04:11 10° N
EO 1 Delta rocket 4.2 19:55:29 10° N 20:00:42 83° E 20:02:23 50° S
SL-8 Rocket 4.3 20:01:44 43° SE 20:03:00 49° E 20:08:53 10° NNE
BREEZE-M R/B 4.2 19:58:36 10° WNW 20:06:22 40° SW 20:06:41 40° SW
BREEZE-M DEB (TANK) 2.4 20:08:08 88° ESE 20:08:08 88° ESE 20:15:23 10° ENE
Cosmos 2344 3.4 20:06:06 28° SSW 20:10:29 87° SE 20:18:23 10° NE
Cosmos 2151 2.9 20:10:45 79° NE 20:10:45 79° NE 20:14:52 10° N
Cosmos 1980 4.5 20:15:08 24° WSW 20:18:15 48° WNW 20:23:43 10° NNE
ALOS 2 2.7 20:20:40 65° ENE 20:20:40 65° ENE 20:25:02 10° N
IRIDIUM 103 4.5 20:20:46 54° ESE 20:21:15 56° E 20:26:21 10° N
Cosmos 1408 Rocket 4.5 20:21:46 37° ENE 20:21:46 37° ENE 20:25:22 10° NNE
Cosmos 2369 Rocket 4.2 20:17:41 10° N 20:21:43 20° NE 20:25:20 11° E
Cosmos 1825 2.8 20:23:21 52° NW 20:23:21 52° NW 20:26:38 10° N
ATLAS CENTAUR R/B 3.5 20:21:13 10° WNW 20:22:16 14° W 20:22:16 14° W
Cosmos 1340 4.0 20:24:54 31° NE 20:24:54 31° NE 20:27:20 10° NNE
Cosmos 44 3.1 20:26:52 66° NE 20:26:52 66° NE 20:30:44 10° NE
Cosmos 1151 Rocket 3.5 20:22:21 10° N 20:26:23 52° ENE 20:26:23 52° ENE
Cosmos 1933 4.1 20:23:09 10° N 20:26:35 44° NE 20:26:35 44° NE
NOSS 3-4 (A) 3.8 20:22:48 10° NW 20:29:55 80° WSW 20:32:22 47° SSE
NOSS 3-4 (C) 3.8 20:22:54 10° NW 20:30:02 81° WSW 20:32:31 47° SSE
Cosmos 371 Rocket 3.8 20:27:52 10° N 20:32:35 47° ENE 20:33:08 45° E
Terra 4.2 20:31:40 10° WSW 20:33:00 11° W 20:34:36 10° WNW
GP-B 3.1 20:29:40 10° N 20:33:57 79° NE 20:33:57 79° NE
Cosmos 1624 Rocket 3.9 20:31:06 10° NNW 20:36:18 70° WSW 20:36:39 67° SW
Cosmos 2237 Rocket 3.4 20:33:12 19° WSW 20:36:40 37° WNW 20:41:57 10° N
Nimbus 7 Rocket 4.4 20:31:00 10° NNE 20:36:56 79° WNW 20:38:23 53° SSW
IRIDIUM 106 4.1 20:39:03 74° SSE 20:39:31 83° E 20:44:46 10° N
Helios 1B rocket 4.4 20:40:34 10° NE 20:42:46 18° ENE 20:42:46 18° ENE
Cosmos 1782 4.1 20:44:48 10° N 20:47:59 32° ENE 20:47:59 32° ENE
DELTA 2 R/B (1) 4.1 20:45:26 10° W 20:55:24 17° E 20:56:35 10° E
Cosmos 1346 Rocket 3.7 20:52:34 42° NE 20:52:34 42° NE 20:55:30 10° NNE
ATLAS 2AS CENTAUR R/B 2.8 20:50:30 10° NW 20:57:44 57° WSW 20:59:00 50° SSW
CZ-4 R/B 4.4 21:01:05 10° NNE 21:05:24 45° E 21:05:24 45° E
Gbstr 26 Del rocket 3.6 21:06:58 47° NE 21:06:58 47° NE 21:10:03 10° NE
Cosmos 1515 Rocket 3.6 21:02:07 10° N 21:06:07 73° NNE 21:06:07 73° NNE
Cosmos 2218 Rocket 4.2 21:06:08 48° SW 21:07:45 64° W 21:14:01 10° N
Cosmos 468 4.4 21:09:16 69° SE 21:09:28 70° ESE 21:14:42 10° NNE
Cosmos 2278 Rocket 4.1 21:09:31 10° WNW 21:12:54 16° W 21:13:09 16° WSW
Cosmos 2366 rocket 4.3 21:11:55 47° SW 21:13:32 60° W 21:19:50 10° N
Cosmos 1328 Rocket 4.2 21:09:44 10° NNW 21:13:23 44° WNW 21:13:23 44° WNW
Cosmos 1943 3.9 21:14:18 38° ESE 21:14:34 38° ESE 21:19:47 10° NE
Cosmos 2297 3.8 21:09:17 10° NNW 21:14:54 59° WSW 21:15:17 58° SW
Cosmos 1606 4.4 21:14:48 10° NNW 21:17:19 26° WNW 21:17:19 26° WNW
Cosmos 304 Rocket 3.9 21:14:25 10° NNW 21:19:13 63° ENE 21:19:36 60° E
Cosmos 1420 Rocket 4.2 21:15:09 10° NNW 21:20:18 55° WSW 21:20:21 55° WSW
Cosmos 494 Rocket 4.4 21:20:18 49° ESE 21:20:23 49° ESE 21:25:22 10° NNE
SL-16 R/B 3.0 21:18:55 33° WSW 21:20:51 44° WNW 21:26:17 10° NNE
Cosmos 2228 Rocket 3.3 21:17:17 10° N 21:21:50 64° E 21:21:50 64° E
Cosmos 1943 Rocket 2.2 21:16:23 10° NNW 21:22:05 76° ENE 21:23:11 58° SE
Cosmos 1862 4.5 21:22:54 35° ENE 21:22:54 35° ENE 21:25:57 10° NNE
Cosmos 1821 Rocket 4.0 21:21:14 54° SE 21:22:26 67° E 21:28:29 10° NNE
CRYOSAT 2 4.4 21:21:12 10° N 21:26:02 63° E 21:26:12 63° ESE
Cosmos 1633 3.7 21:27:04 41° NNW 21:27:04 41° NNW 21:29:41 10° N
Lacrosse 5 rocket 3.5 21:24:35 10° NNW 21:27:48 23° NNE 21:30:48 10° E
Landsat 4 4.5 21:25:56 10° N 21:29:00 49° NNW 21:29:00 49° NNW
YAOGAN 11 4.5 21:31:33 54° WNW 21:31:33 54° WNW 21:35:24 10° NNW
USA 267 4.3 21:34:05 28° WSW 21:34:05 28° WSW 21:38:53 10° WNW
Cosmos 1743 Rocket 3.8 21:35:28 60° WNW 21:35:28 60° WNW 21:39:29 10° N
Sich 1 3.7 21:38:30 43° E 21:38:30 43° E 21:42:26 10° NNE
Cosmos 1048 Rocket 4.1 21:39:18 60° WSW 21:40:01 69° WNW 21:45:18 10° NNE
Cosmos 1331 Rocket 4.5 21:36:50 10° NNW 21:42:05 56° ENE 21:43:31 42° ESE
Cosmos 332 Rocket 4.2 21:38:35 10° NNW 21:42:48 48° W 21:42:48 48° W
Helios 1A 4.4 21:48:16 27° WNW 21:48:16 27° WNW 21:51:03 10° NW
SL-16 R/B 3.8 21:46:28 16° ESE 21:50:48 35° ENE 21:56:21 10° N
CZ-4C R/B 3.3 21:44:34 10° NNW 21:51:48 63° NE 22:00:03 10° SE
Meteor 1-10 Rocket 4.1 21:46:39 10° N 21:52:15 80° E 21:53:22 58° SSE
COSMOS 2455 2.8 21:48:29 10° NW 21:54:27 65° WSW 21:55:18 58° SSW
Cosmos 1452 Rocket 4.1 21:50:04 10° NW 21:54:48 40° W 21:54:48 40° W
Meteor 2-6 Rocket 4.0 21:49:27 10° NNW 21:54:57 81° W 21:55:42 66° SSW
Cosmos 1603 3.6 21:54:33 60° SW 21:55:38 81° WNW 22:01:23 10° NNE
Meteor 1-29 4.0 21:53:07 10° NNE 21:55:32 44° NNE 21:55:32 44° NNE
PSLV R/B 4.0 21:54:43 10° N 21:58:48 48° WNW 21:58:48 48° WNW
Cosmos 1110 Rocket 3.9 21:53:50 10° NNW 21:59:09 88° ENE 22:00:03 63° SSE
Cosmos 1269 Rocket 4.0 21:59:34 62° SSE 22:00:14 70° ESE 22:05:30 10° NNE
SL-4 R/B 4.0 22:02:31 14° ENE 22:02:31 14° ENE 22:03:11 10° NE
Cosmos 1607 4.3 22:01:25 43° SSE 22:02:35 48° ESE 22:08:35 10° NE
Cosmos 389 Rocket 3.7 22:00:14 10° N 22:03:15 36° ENE 22:03:15 36° ENE
Cosmos 2369 Rocket 2.1 22:00:43 10° NNW 22:06:17 69° WSW 22:07:04 60° SSW
Resurs 1-4 Rocket 3.1 22:01:23 10° NNE 22:06:18 36° E 22:07:40 31° SE
Cosmos 1666 Rocket 3.7 22:07:06 61° ESE 22:07:18 62° E 22:11:39 10° NNE
SeaSat 1 2.5 22:06:04 10° NNE 22:10:58 60° ESE 22:11:34 55° SE
Cosmos 1934 Rocket 3.9 22:10:15 52° SSW 22:11:54 84° W 22:18:10 10° N
ISS -2.6 22:18:04 42° NE 22:18:04 42° NE 22:20:27 10° NE
ADEOS II 4.2 22:14:09 10° NE 22:17:38 18° E 22:20:18 13° SE
Helios 1B rocket 3.5 22:15:13 10° N 22:18:57 33° WNW 22:19:05 33° WNW
Cosmos 1302 Rocket 4.3 22:15:20 10° NNW 22:20:31 63° ENE 22:22:35 35° SE
Cosmos 1238 Rocket 4.2 22:19:53 37° SSE 22:22:05 57° E 22:27:29 10° NNE
Cosmos 1656 Rocket 3.5 22:17:23 10° NNW 22:22:49 83° ENE 22:24:43 42° SSE
Meteor 1-27 Rocket 3.6 22:17:19 10° N 22:22:57 88° E 22:24:39 48° S
Cosmos 1805 Rocket 4.3 22:24:41 39° W 22:24:47 39° WNW 22:28:53 10° N
MOZ.5/SAFIR/RUBIN 5/SL-8 3.9 22:23:42 49° SE 22:24:53 72° ENE 22:29:38 10° N
Cosmos 1812 3.5 22:27:16 10° NNW 22:30:21 40° WNW 22:30:21 40° WNW
UNK 4.1 22:30:10 37° SE 22:31:44 58° ENE 22:36:16 10° N
Abrixas rocket 4.4 22:34:23 17° E 22:34:23 17° E 22:35:16 10° ENE
Cosmos 2263 4.3 22:26:56 10° NNW 22:32:35 58° WSW 22:33:45 49° SSW
CZ-4C R/B 3.7 22:34:12 49° SE 22:34:59 62° ENE 22:38:52 10° N
CZ-2D R/B 2.3 22:30:35 10° NNE 22:35:52 66° ESE 22:37:33 43° SSE
DELTA 2 R/B (1) 3.6 22:36:22 48° SW 22:37:14 53° SSW 22:42:40 10° ESE
RESURS DK-1 3.3 22:40:22 10° NW 22:43:23 35° W 22:43:23 35° W
Lacrosse 5 2.5 22:48:42 38° SSE 22:49:42 42° SE 22:54:29 10° ENE
Cosmos 2242 Rocket 4.5 22:46:55 10° N 22:51:22 47° ENE 22:53:46 24° SE
Cosmos 1441 Rocket 3.8 22:52:40 43° W 22:52:52 43° WNW 22:56:41 10° N
Cosmos 44 Rocket 4.4 22:51:43 26° W 22:53:27 34° NW 22:57:49 10° NNE
Cosmos 1707 Rocket 4.3 22:50:29 10° NNW 22:54:35 36° W 22:54:44 36° W
NPP 3.6 22:49:22 10° NNE 22:54:47 83° ESE 22:56:49 40° S
Cosmos 1943 4.4 22:56:06 23° W 22:58:39 32° NW 23:03:43 10° N
Meteor 1-20 Rocket 4.1 22:56:38 38° S 22:58:51 82° E 23:04:28 10° NNE
Cosmos 1470 Rocket 3.5 22:58:56 52° SSW 22:59:56 78° W 23:04:27 10° N
Cosmos 2100 Rocket 4.3 22:59:26 25° SSE 23:03:08 64° E 23:09:21 10° NNE
IKONOS-2 4.4 23:03:59 49° S 23:05:04 76° WSW 23:09:19 10° NNW
Cosmos 1943 Rocket 4.0 23:02:04 10° WNW 23:04:40 15° W 23:04:40 15° W
AQUA 3.7 23:01:50 10° NNE 23:06:39 87° ESE 23:08:21 40° SSW
Lacrosse 5 rocket 1.7 23:03:26 10° NW 23:06:18 41° W 23:06:18 41° W
Cosmos 972 Rocket 4.2 23:01:50 10° NNW 23:08:04 74° WSW 23:11:01 29° S
Cosmos 1184 Rocket 2.8 23:11:36 61° SE 23:11:55 67° E 23:15:07 10° NNE
Cosmos 1633 Rocket 4.1 23:11:22 29° W 23:12:09 31° WNW 23:16:05 10° NNW
Cosmos 1862 Rocket 4.0 23:10:55 10° NNW 23:15:11 46° W 23:16:05 40° SW
Meteor 1-14 Rocket 4.4 23:12:42 26° S 23:15:49 66° E 23:21:21 10° NNE
BREEZE-M DEB (TANK) 3.6 23:10:45 10° W 23:17:01 56° NNW 23:20:00 10° ENE
Meteor 1-4 Rocket 2.5 23:15:04 10° NNW 23:18:47 66° W 23:19:28 52° SSW
Cosmos 2251 Rocket 3.4 23:17:32 35° SSW 23:19:47 84° WNW 23:25:03 10° NNE
ARIANE 5 R/B 3.7 23:15:57 10° NNE 23:20:36 36° E 23:24:23 15° SSE
GPS 2-04 Rocket1 4.2 23:24:18 21° SSE 23:24:18 21° SSE 23:26:38 10° ESE
Cosmos 405 Rocket 2.9 23:24:29 33° SSE 23:26:04 66° E 23:29:55 10° NNE
Okean 1 3.2 23:27:02 10° NNW 23:31:00 75° W 23:32:39 34° S
SL-4 R/B 3.4 23:32:31 15° WNW 23:33:01 16° NW 23:34:53 10° N
SL-16 R/B 3.1 23:31:34 27° SW 23:34:17 40° W 23:40:07 10° NNW
Cosmos 1459 Rocket 3.9 23:30:42 25° SSW 23:34:25 81° W 23:40:33 10° N
CZ-4B R/B 3.7 23:29:40 10° N 23:34:43 58° WNW 23:37:13 28° SW
Cosmos 2061 Rocket 4.2 23:30:02 17° S 23:35:00 71° E 23:41:20 10° NNE
Okean 1-7 3.0 23:33:16 10° N 23:37:42 88° WSW 23:40:37 21° S
CZ-4C R/B 3.6 23:33:35 10° NW 23:40:16 34° WSW 23:45:19 18° SSW
Cosmos 1992 Rocket 4.0 23:37:21 10° NNW 23:42:32 62° WSW 23:46:37 16° S
Cosmos 614 Rocket 4.2 23:40:13 21° S 23:43:32 62° ESE 23:48:34 10° NNE
Cosmos 1933 Rocket 4.4 23:43:16 26° WSW 23:44:49 35° WNW 23:48:49 10° N
Cosmos 1725 Rocket 4.2 23:39:47 14° S 23:45:06 69° E 23:51:16 10° NNE
Resurs 1-4 Rocket 3.3 23:41:25 10° N 23:45:59 30° WNW 23:48:45 19° WSW
Cosmos 1869 Rocket 3.4 23:45:03 24° S 23:47:35 88° W 23:51:56 10° N
SeaSat 1 4.2 23:44:23 10° N 23:48:05 22° NW 23:51:20 12° W
BREEZE-M TANK 2.0 23:47:12 28° WSW 23:48:40 88° SSE 23:52:20 10° ENE
CZ-2D R/B 4.5 23:45:42 10° NNE 23:49:57 45° E 23:53:44 12° S
IRS-P3 4.1 23:46:08 10° NNE 23:51:29 80° WNW 23:55:13 20° SSW
ISS -1.4 23:51:43 10° WNW 23:54:19 20° NNW 23:56:55 10° NE
Meteor 1-28 Rocket 3.4 23:51:34 10° SSE 23:55:13 69° ENE 23:58:55 10° N
